Tracking 19831 objects as of 23-Aug-2019
HD Live streaming from Space Station
objects crossing your sky now

ATLAS 2AS CENTAUR R/B

Track ATLAS 2AS CENTAUR R/B now!
10-day predictions


NORAD ID: 26072
Int'l Code: 2000-007B
Perigee: 267.6 km
Apogee: 9,327.9 km
Inclination: 18.1 °
Period: 195.8 minutes
Semi major axis: 11168 km
RCS: 16.571 m2 (large)
Launch date: February 3, 2000
Source: United States (US)
Launch site: AIR FORCE EASTERN TEST RANGE (AFETR)

Note: This is a ROCKET BODY
aabbcc
Your satellite tracking list
Your tracking list is empty




NASA's NSSDC Master Catalog

Two Line Element Set (TLE):
1 26072U 00007B   19234.56233866 +.00009530 +00000-0 +46609-3 0  9997
2 26072 018.0979 346.6353 4056077 136.0358 264.5292 07.35521128155834
Source of the keplerian elements: AFSPC